Regional Weather Roundup
Issued by NWS

Home | Current Version | Previous Version | Text Only | Print | Product List | Glossary Off
Versions: 1 2 3 4 5 6 7 8 9 10 11 12 13 14 15 16 17 18 19 20 21 22 23 24 25 26 27 28 29 30 31 32 33 34 35 36 37 38 39 40 41 42 43 44 45 46 47 48 49 50

000
ASUS45 KPSR 301410
RWRAZ

ARIZONA HOURLY REGIONAL WEATHER ROUNDUP
NATIONAL WEATHER SERVICE PHOENIX AZ
700 AM MST SAT APR 30 2016

NOTE: FAIR INDICATES FEW OR NO CLOUDS BELOW 12,000 FEET WITH NO
SIGNIFICANT WEATHER AND/OR OBSTRUCTIONS TO VISIBILITY.

AZZ001>003-036-301500-
NORTHWEST ARIZONA

CITY           SKY/WX    TMP DP  RH WIND       PRES   REMARKS
BULLHEAD CITY  MOSUNNY   63  46  55 N20       29.70R
KINGMAN        CLOUDY    55  37  50 S9        29.72R
$$

AZZ004>008-015-016-018-301500-
NORTH CENTRAL ARIZONA

CITY           SKY/WX    TMP DP  RH WIND       PRES   REMARKS
GRAND CANYON   CLOUDY    43  34  70 CALM      29.86R
WILLIAMS       CLOUDY    41  34  75 SE10G17   29.92R
PRESCOTT       PTSUNNY   50  34  54 S8        29.82R
FLAGSTAFF      CLOUDY    38  37  97 SW5       29.88R WCI  34
PAYSON         PTSUNNY   50  37  62 VRB3      29.88S
PAGE           CLOUDY    49  44  83 SE3       29.83R
$$

AZZ009>014-017-301500-
NORTHEAST ARIZONA

CITY           SKY/WX    TMP DP  RH WIND       PRES   REMARKS
WINSLOW        CLOUDY    47  38  71 E8        29.86R
SAINT JOHNS    MOSUNNY   45  39  79 SE6       29.89S
WINDOW ROCK    SUNNY     39  35  86 CALM      29.90R
SHOW LOW       MOSUNNY   41  34  75 S10       29.91R
$$

AZZ023-301500-
GREATER PHOENIX AREA

CITY           SKY/WX    TMP DP  RH WIND       PRES   REMARKS
PHOENIX        PTSUNNY   64  39  39 SE12      29.74R
BUCKEYE        PTSUNNY   63  37  39 E8        29.75S
GLENDALE       PTSUNNY   64  43  45 E5        29.76
LUKE AFB       MOSUNNY   65  42  41 E5        29.74R
DEER VALLEY    PTSUNNY   64  38  38 SE6       29.76R
SCOTTSDALE     MOSUNNY   64  37  36 SE6       29.78R
MESA-FALCON    MOSUNNY  N/A N/A N/A E12       29.74S
MESA-GATEWAY   MOSUNNY   63  37  39 SE10      29.78R
CHANDLER       PTSUNNY   61  41  48 NE5       29.76S
$$

AZZ027-028-301500-
SOUTHWEST MARICOPA COUNTY AND PINAL COUNTY

CITY           SKY/WX    TMP DP  RH WIND       PRES   REMARKS
CASA GRANDE    MOSUNNY   61  36  39 SE9       29.79S
GILA BEND      FAIR      66  33  29 SE2       29.72R
$$

AZZ503-504-507>509-301500-
SOUTHEAST ARIZONA

CITY           SKY/WX    TMP DP  RH WIND       PRES   REMARKS
TUCSON         SUNNY     59  33  37 SE8       29.85R
DAVIS-MONTHAN  SUNNY     57  34  42 E8        29.84R
RYAN FIELD     SUNNY     55  34  44 E10       29.84R
NOGALES        SUNNY     51  34  52 CALM      29.88R
SIERRA VISTA   SUNNY     57  26  30 SW8       29.91R
DOUGLAS        SUNNY     53  31  42 SE6       29.90R
SAFFORD        SUNNY     54  31  41 SE9       29.84R
$$

AZZ020-021-025-026-031-301500-
SOUTHWEST ARIZONA

CITY           SKY/WX    TMP DP  RH WIND       PRES   REMARKS
YUMA           SUNNY     64  53  67 W8        29.71R
$$

CAZ031-033-041-043-047-048-061-301500-
SOUTHERN CALIFORNIA

CITY           SKY/WX    TMP DP  RH WIND       PRES   REMARKS
DOWNTOWN L.A.  CLOUDY    58  50  75 CALM      29.83R
L.A. AIRPORT   PTSUNNY   56  49  77 W7        29.84R
SAN DIEGO      RAIN      57  52  83 S8G17     29.87R
BURBANK        PTSUNNY   55  49  80 S3        29.82R
ONTARIO        LGT RAIN  53  51  93 W9        29.82R FOG
RIVERSIDE      LGT RAIN  55  52  89 VRB5      29.83R FOG
PALM SPRINGS   MOSUNNY   63  47  55 W10G28    29.69R
EL CENTRO NAS  SUNNY     65  41  41 W25       29.73R
IMPERIAL       SUNNY     64  43  46 W18       29.70R
BLYTHE         SUNNY     62  45  53 S9        29.68R
NEEDLES        CLOUDY    65  48  54 N12       29.69R
$$

NVZ020-UTZ003-301500-
SOUTHERN NEVADA-UTAH

CITY           SKY/WX    TMP DP  RH WIND       PRES   REMARKS
LAS VEGAS      RAIN      50  49  96 NW9       29.73R
SALT LAKE CITY MOSUNNY   48  40  73 CALM      29.91R
$$

NMZ009-TXZ055-301500-
NEW MEXICO-WEST TEXAS

CITY           SKY/WX    TMP DP  RH WIND       PRES   REMARKS
ALBUQUERQUE    MOSUNNY   46  37  71 SE5       29.89R
EL PASO        MOSUNNY   60  30  32 SW5       29.89R
$$


........................KEY........................
SKY/WX - SKY CONDITION/WEATHER
TMP    - TEMPERATURE IN FAHRENHEIT
DP     - DEW POINT IN FAHRENHEIT
RH     - RELATIVE HUMIDITY IN PERCENT
WIND   - DIRECTION AND SPEED IN MILES PER HOUR (MPH)
VRB    - VARIABLE WIND DIRECTION
PRES   - MEAN SEA LEVEL PRESSURE IN INCHES OF MERCURY
         F - FALLING PRESSURE   R - RISING PRESSURE
         S - STEADY PRESSURE
VSB    - VISIBILITY IN MILES
HX     - HEAT INDEX IN FAHRENHEIT
WCI    - WIND CHILL INDEX IN FAHRENHEIT
TC     - TEMPERATURE IN CELSIUS WHICH IS ALSO KNOWN AS
         TEMPERATURE IN CENTIGRADE
AFB    - AIR FORCE BASE
         LUKE AFB IS LUKE AIR FORCE BASE
         DAVIS-MONTHAN IS DAVIS-MONTHAN AIR FORCE BASE
NAS    - NAVAL AIR STATION
         EL CENTRO NAS IS EL CENTRO NAVAL AIR STATION
N/A    - NOT AVAILABLE




USA.gov is the U.S. government's official web portal to all federal, state and local government web resources and services.